EUTELSAT 65 WEST A

Last updated on Thu Nov 21 2024 00:02:43 GMT+0000 (Coordinated Universal Time)

1 41382U 16014A 24325.18056015 -.00000274 00000+0 00000+0 0 9994 2 41382 0.0581 23.6723 0002697 227.4209 168.3949 1.00268234 31771
UTC large
Height (km)
Speed (km/s)
/
Latitude / Longitude
Inclination (degrees)
Orbital Period (minutes)
Azimuth
Elevation
Range (km)
Doppler Factor

Next 0 passes for location: London (51.5072 / 0.1276)

Sorry there are no passes over London.